KUIPER-00120

导读 | 豆包AI

KUIPER-00120是美国亚马逊柯伊伯(Kuiper)低轨互联网星座的一颗现役卫星,于2025年9月25日,在美国佛罗里达州空军东部试验场发射升空。它运行在近圆近地轨道,轨道倾角51.898°,平均轨道高度约647.5公里,轨道周期约97.5分钟,当前状态正常,为全球宽带互联网组网建设提供支撑。

基本信息
目录编号:
65762
目录名称:
KUIPER-00120
国际标识:
2025-217A
轨道中心:
EARTH
卫星名称:
KUIPER-00120
卫星全名:
KUIPER-00120
卫星状态:
在轨 (已飞行242 天)
发射日期:
2025-09-25 UTC
国别 :
美国 (US)
星等 :
--
轨道信息
数据来源 国际轨道数据
星历时间: 2026-05-24T10:28:47+0800
1天前
查看轨道信息
半长轴: 7007.696km
偏心率: 0.0000851
轨道倾角: 51.899°
近地点辐角 81.069°
升交点赤经 79.581°
平近点角 279.037°
近地点: 628.962km
远地点: 630.156km
周期: 97.302分钟
每日圈数: 14.799258
详细信息
使用方式:
暂无
2D轨道图
3D轨道图
轨道高度分析图
轨道倾角分析图
轨道综合分析图
查看轨道综合分析图